Theta_e
305 304 303 301 301 301 300 300 298 298 298 298 299 299 300 301 302 303 303 305 307 305
304 304 303 302 302 301 299 299 297 297 297 296 296 296 297 298 301 300 300 301 304 306
306 305 304 302 301 300 299 298 296 295 295 296 298 299 299 298 298 298 298 299 300 302
306 304 304 304 302 299 298 298 296 297 298 297 298 298 297 296 296 296 297 298 299 299
305 304 304 303 301 299 298 299 297 299 298 298 297 296 296 295 296 295 295 296 297 297
303 303 303 302 301 299 300 299 299 298 298 297 296 295 295 295 295 294 295 294 296 296
300 303 302 302 300 299 301 299 298 298 297 297 296 295 294 294 293 293 293 294 295 296
300 301 303 301 302 301 299 300 299 298 297 296 296 295 294 294 292 292 292 293 294 294
300 300 301 301 302 302 301 300 298 297 296 294 295 293 293 293 292 291 290 289 291 291
302 301 299 300 303 302 300 299 297 296 295 293 293 292 292 292 291 289 290 287 287 289
301 300 300 300 300 300 299 297 296 295 295 294 293 291 292 291 291 290 289 289 288 288
299 298 297 296 295 299 298 296 295 295 294 293 292 291 290 290 289 288 288 288 288 288
298 297 295 294 293 292 296 296 295 292 293 293 292 291 290 291 290 287 286 286 286 287
295 296 296 293 290 291 289 288 287 288 289 290 290 290 291 290 289 287 287 286 286 285
Wind_Speed
7 6 7 7 5 6 6 5 5 6 5 4 4 4 3 2 3 4 3 7 10 8
7 8 8 8 7 6 5 3 4 5 5 5 5 6 5 4 4 3 2 3 5 9
9 9 7 6 9 9 5 6 5 5 6 6 6 6 6 4 4 5 3 3 1 1
6 8 9 9 7 6 6 7 7 7 6 7 6 6 5 4 4 4 4 4 2 4
5 6 7 8 6 6 7 6 6 7 7 7 6 6 6 5 4 5 4 3 5 5
6 7 8 8 6 7 6 6 6 6 8 8 8 8 7 6 5 5 4 5 7 5
7 8 8 8 9 9 11 11 11 11 10 10 9 9 8 7 5 4 5 4 5 9
7 7 7 7 9 11 10 9 8 8 8 9 10 8 10 9 8 6 5 5 6 4
7 7 7 8 10 10 10 10 9 9 10 10 8 14 15 11 8 7 6 4 3 2
7 7 5 6 9 10 11 9 10 10 9 10 10 15 18 16 9 9 8 7 7 5
6 6 3 3 4 4 4 8 8 9 10 9 8 14 18 17 7 6 7 9 9 9
4 7 6 1 3 4 5 6 7 7 8 9 8 17 18 15 8 6 7 6 6 8
6 5 5 4 3 1 1 5 6 7 8 11 9 17 20 16 8 6 4 3 4 7
5 6 3 1 1 1 1 2 1 3 3 6 8 12 20 20 10 9 7 5 3 3
Wind_Direction
211 209 209 199 196 219 214 220 195 205 203 205 197 208 224 213 209 217 206 218 194 176
212 211 211 203 208 215 201 215 205 201 204 207 206 199 194 203 195 174 192 236 215 196
218 217 217 204 224 221 209 177 188 201 203 204 202 202 200 195 178 187 180 188 311 298
227 206 212 224 231 207 187 181 189 198 201 202 200 187 192 193 176 198 188 171 176 91
222 212 220 232 229 183 196 195 191 194 196 201 186 173 175 182 198 205 194 184 158 122
221 214 225 227 192 188 183 180 188 193 201 190 179 180 185 195 209 210 194 176 195 165
238 225 221 208 191 193 194 192 198 202 194 188 185 184 175 183 198 184 192 196 193 193
263 238 226 209 202 206 194 198 197 197 203 194 185 187 183 184 188 195 202 203 194 188
298 269 231 221 214 202 196 192 191 202 192 195 197 190 182 174 175 192 193 204 200 131
302 296 295 235 196 196 196 189 203 194 187 201 203 188 180 178 182 181 193 179 167 169
297 296 308 187 197 245 206 194 202 204 199 202 201 186 183 182 178 178 188 185 171 163
305 299 275 260 202 202 187 202 215 210 207 202 205 183 171 163 163 163 165 168 160 155
303 300 255 210 154 195 252 223 213 209 202 205 198 183 170 166 164 157 136 125 134 147
296 290 241 250 26 73 360 288 212 181 168 174 172 173 176 169 174 177 171 166 139 129